Mosinee, WI

9:22 PM CDT on March 23, 2017 (GMT -0500)
Central Wisconsin

Weather History for KCWA - November, 2012

Change the Weather History Date:

Monday, November 19, 2012

  Actual Average Record
Temperature  
Mean Temperature 42 °F -  
Max Temperature 48 °F 36 °F 55 °F (1999)
Min Temperature 37 °F 22 °F 12 °F (1996)
Degree Days  
Heating Degree Days 22    
Moisture  
Dew Point 35 °F    
Average Humidity 75    
Maximum Humidity 87    
Minimum Humidity 62    
Precipitation  
Precipitation 0.00 in - - ()
Sea Level Pressure  
Sea Level Pressure 30.14 in    
Wind  
Wind Speed 5 mph (SE)    
Max Wind Speed 8 mph    
Max Gust Speed -    
Visibility 10 miles    
Events      
Averages and records for this station are not official NWS values.
T = Trace of Precipitation, MM = Missing Value Source: NWS Daily Summary

Daily Weather History Graph

Daily Weather History Graph

Search for Another Location

Airport or City:

Trip Planner

Search our weather history database for the weather conditions in past years. The results will help you decide how hot, cold, wet, or windy it might be!

Date:

Astronomy

Nov. 19, 2012 Rise Set
Actual Time 7:01 AM CST 4:26 PM CST
Civil Twilight 6:29 AM CST 4:58 PM CST
Nautical Twilight 5:53 AM CST 5:34 PM CST
Astronomical Twilight 5:19 AM CST 6:08 PM CST
Moon 11:58 AM CST (11/19) 11:00 PM CST (11/19)
Length of Visible Light 10h 28m
Length of Day
9h 24m
Waxing Crescent, 41% of the Moon is Illuminated
Nov 19
Waxing Crescent
Nov 20
First Quarter
Nov 28
Full
Dec 6
Last Quarter
Dec 13
New

Hourly Weather History & Observations

Time (CST) Temp. Windchill Dew Point Humidity Pressure Visibility Wind Dir Wind Speed Gust Speed Precip Events Conditions
12:15 AM 41.0 °F 35.8 °F 32.0 °F 70% 30.24 in 10.0 mi SSE 8.1 mph - N/A   Mostly Cloudy
12:35 AM 39.2 °F 34.2 °F 32.0 °F 75% 30.24 in 10.0 mi SSE 6.9 mph - N/A   Scattered Clouds
12:55 AM 37.4 °F 32.8 °F 32.0 °F 81% 30.23 in 10.0 mi SSE 5.8 mph - N/A   Clear
1:15 AM 37.4 °F 32.8 °F 32.0 °F 81% 30.23 in 10.0 mi SE 5.8 mph - N/A   Clear
1:35 AM 37.4 °F 32.8 °F 32.0 °F 81% 30.23 in 10.0 mi SE 5.8 mph - N/A   Scattered Clouds
2:15 AM 37.4 °F 32.8 °F 33.8 °F 87% 30.23 in 10.0 mi SE 5.8 mph - N/A   Overcast
2:35 AM 39.2 °F 35.0 °F 33.8 °F 81% 30.22 in 10.0 mi ESE 5.8 mph - N/A   Overcast
3:15 AM 41.0 °F 37.1 °F 33.8 °F 76% 30.20 in 10.0 mi ESE 5.8 mph - N/A   Overcast
3:35 AM 41.0 °F 38.0 °F 33.8 °F 76% 30.20 in 10.0 mi SE 4.6 mph - N/A   Overcast
3:55 AM 41.0 °F 37.1 °F 33.8 °F 76% 30.20 in 10.0 mi SE 5.8 mph - N/A   Overcast
4:15 AM 41.0 °F 37.1 °F 33.8 °F 76% 30.19 in 10.0 mi SE 5.8 mph - N/A   Overcast
4:35 AM 41.0 °F 37.1 °F 33.8 °F 76% 30.20 in 10.0 mi SE 5.8 mph - N/A   Overcast
5:45 AM 41.0 °F 37.1 °F 33.8 °F 76% 30.18 in 10.0 mi SE 5.8 mph - N/A   Mostly Cloudy
6:45 AM 41.0 °F 37.1 °F 33.8 °F 76% 30.19 in 10.0 mi SE 5.8 mph - N/A   Mostly Cloudy
7:45 AM 42.8 °F 39.3 °F 33.8 °F 70% 30.18 in 10.0 mi SE 5.8 mph - N/A   Scattered Clouds
8:45 AM 42.8 °F 38.6 °F 33.8 °F 70% 30.18 in 10.0 mi SE 6.9 mph - N/A   Mostly Cloudy
9:50 AM 44.6 °F 40.7 °F 35.6 °F 71% 30.17 in 10.0 mi SE 6.9 mph - N/A   Scattered Clouds
10:50 AM 46.4 °F 43.5 °F 35.6 °F 66% 30.17 in 10.0 mi SSE 5.8 mph - N/A   Overcast
11:50 AM 48.2 °F - 35.6 °F 62% 30.15 in 10.0 mi Variable 3.5 mph - N/A   Overcast
12:45 PM 48.2 °F - 35.6 °F 62% 30.12 in 10.0 mi SE 8.1 mph - N/A   Overcast
1:50 PM 48.2 °F - 37.4 °F 66% 30.10 in 10.0 mi SSE 4.6 mph - N/A   Overcast
2:45 PM 48.2 °F - 37.4 °F 66% 30.10 in 10.0 mi South 5.8 mph - N/A   Overcast
3:50 PM 46.4 °F 45.2 °F 37.4 °F 71% 30.10 in 10.0 mi SE 3.5 mph - N/A   Overcast
4:50 PM 46.4 °F 44.3 °F 37.4 °F 71% 30.09 in 10.0 mi SE 4.6 mph - N/A   Overcast
5:50 PM 46.4 °F 42.9 °F 37.4 °F 71% 30.09 in 10.0 mi ESE 6.9 mph - N/A   Overcast
6:50 PM 46.4 °F 44.3 °F 37.4 °F 71% 30.10 in 10.0 mi SSW 4.6 mph - N/A   Overcast
7:45 PM 44.6 °F 43.1 °F 37.4 °F 76% 30.09 in 10.0 mi SE 3.5 mph - N/A   Overcast
8:55 PM 42.8 °F - 37.4 °F 81% 30.08 in 10.0 mi Calm Calm - N/A   Overcast
9:15 PM 42.8 °F - 35.6 °F 76% 30.08 in 10.0 mi Calm Calm - N/A   Overcast
9:35 PM 42.8 °F - 37.4 °F 81% 30.08 in 10.0 mi Calm Calm - N/A   Overcast
9:50 PM 42.8 °F - 37.4 °F 81% 30.07 in 10.0 mi Calm Calm - N/A   Overcast
9:55 PM 42.8 °F 41.1 °F 35.6 °F 76% 30.07 in 10.0 mi SE 3.5 mph - N/A   Overcast
10:15 PM 42.8 °F - 37.4 °F 81% 30.07 in 10.0 mi Calm Calm - N/A   Overcast
10:35 PM 41.0 °F - 37.4 °F 87% 30.07 in 10.0 mi Calm Calm - N/A   Overcast
10:55 PM 42.8 °F - 37.4 °F 81% 30.07 in 10.0 mi Calm Calm - N/A   Overcast
11:15 PM 41.0 °F - 37.4 °F 87% 30.06 in 10.0 mi Calm Calm - N/A   Overcast
11:35 PM 42.8 °F - 37.4 °F 81% 30.07 in 10.0 mi Calm Calm - N/A   Overcast